Regional Weather Roundup
Issued by NWS

Home | Current Version | Previous Version | Text Only | Print | Product List | Glossary On
Versions: 1 2 3 4 5 6 7 8 9 10 11 12 13 14 15 16 17 18 19 20 21 22 23 24 25 26 27 28 29 30 31 32 33 34 35 36 37 38 39 40 41 42 43 44 45 46 47 48 49 50
000
ASUS46 KPQR 281310
RWROR

OREGON REGIONAL WEATHER ROUNDUP
NATIONAL WEATHER SERVICE PORTLAND OR
500 AM PST SAT FEB 28 2015

NOTE: "FAIR" INDICATES FEW OR NO CLOUDS BELOW 12,000 FEET WITH
NO SIGNIFICANT WEATHER AND/OR OBSTRUCTIONS TO VISIBILITY.

ORZ001>013-281400-
NORTHWEST OREGON


CITY           SKY/WX    TMP DP  RH WIND       PRES   REMARKS
ASTORIA        CLEAR     44  36  73 SE5       29.98R
NEWPORT        CLEAR     43  39  87 CALM      29.93R
PORTLAND       PTCLDY    43  41  93 W5        29.98R
VANCOUVER WA   CLEAR     43  40  89 N3        29.97R
SCAPPOOSE      CLEAR     44  39  82 N6        29.97R
HILLSBORO      CLEAR     38  36  92 CALM      29.96R
AURORA         CLEAR     45  32  60 N10       29.96R
MCMINNVILLE    CLEAR     44  38  79 N7        29.96R
SALEM          CLEAR     39  36  89 CALM      29.93R
CORVALLIS      CLEAR     43  36  75 N13G20    29.91R
EUGENE         PTCLDY    40  38  93 N9        29.89R WCI  34
$$

ORZ021-028-281400-
SOUTHWEST OREGON


CITY           SKY/WX    TMP DP  RH WIND       PRES   REMARKS
NORTH BEND     MOCLDY    45  45 100 CALM      29.86R
BROOKINGS      CLOUDY    45  45 100 CALM      29.79R
ROSEBURG       CLOUDY    43  40  89 CALM      29.84R
SEXTON SUMMIT  MOCLDY    32  32 100 N8        29.72R WCI  25
MEDFORD        CLOUDY    43  40  89 N5        29.78R
$$

ORZ014>016-041-281400-
COLUMBIA GORGE


CITY           SKY/WX    TMP DP  RH WIND       PRES   REMARKS
TROUTDALE      PTCLDY    48  29  47 E5        29.96R
THE DALLES     PTCLDY    40  36  86 CALM      30.01R
$$

ORZ029>031-041-044-049-050-061>064-502-503-505>511-281400-
EASTERN OREGON


CITY           SKY/WX    TMP DP  RH WIND       PRES   REMARKS
REDMOND        CLOUDY    31  24  75 N14       29.86R WCI  21
BEND           LGT RAIN  30  28  93 N10G18    29.86R WCI  21
PRINEVILLE     CLOUDY    32  25  74 NW15      29.85R WCI  22
KLAMATH FALLS  FOG       29  27  92 N3        29.72R VSB 1/4
LAKEVIEW       PTCLDY    25  21  86 N8        29.69R WCI  16
HERMISTON      PTCLDY    39  17  41 N17G28    29.99R WCI  30
PENDLETON      PTCLDY    32  21  64 NE8       29.94R WCI  25
JOHN DAY       SNOW      32  32  99 W3        29.76R VSB 1/2
MEACHAM        FOG       30  28  92 VRB6      29.83R VSB 1/4 WCI  24
LA GRANDE      PTCLDY    36  21  55 NW15      29.81R WCI  26
BAKER CITY     MOCLDY    33  24  69 NW18      29.77R WCI  22
BURNS          CLOUDY    33  30  88 N7        29.70R FOG     WCI  27
ROME             N/A     33  30  88 S3        29.66R
ONTARIO        LGT RAIN  38  35  89 S8        29.78R WCI  32
$$


USA.gov is the U.S. government's official web portal to all federal, state and local government web resources and services.